Location: Newark
(29.9790°N, 31.1340°E)
Time: 17:58:46
(UTC+00:00)

Transit 2A Rocket - Pass Details

Date: 20 January 2020
Orbit: 591 x 912 km, 66.7° (Epoch: 22 February)

Event Time Altitude Azimuth Distance (km) Brightness Sun altitude
Rises 14:43:41 0° 317° (NW) 3,112 8.4 6.6°
Reaches altitude 10° 14:46:20 10° 304° (WNW) 2,245 7.9 6.1°
Maximum altitude 14:50:23 24° 251° (WSW) 1,570 8.3 5.3°
Drops below altitude 10° 14:54:44 10° 199° (SSW) 2,406 8.4 4.5°
Sets 14:57:42 0° 186° (S) 3,389 8.8 3.9°
